Regional Weather Roundup
Issued by NWS Bismarck, ND

Home | Current Version | Previous Version | Text Only | Print | Product List | Glossary On
Versions: 1 2 3 4 5 6 7 8 9 10 11 12 13 14 15 16 17 18 19 20 21 22 23 24 25 26 27 28 29 30 31 32 33 34 35 36 37 38 39 40 41 42 43 44 45 46 47 48 49 50
000
ASUS43 KBIS 270810
RWRBIS

NWR BROADCAST TEXT
NATIONAL WEATHER SERVICE BISMARCK ND
200 AM CST FRI FEB 27 2015

NOTE: "FAIR" INDICATES FEW OR NO CLOUDS BELOW 12,000 FEET WITH NO
SIGNIFICANT WEATHER AND/OR OBSTRUCTIONS TO VISIBILITY.


CITY           SKY/WX    TMP DP  RH WIND       PRES   REMARKS
WILLISTON      PTCLDY   -12 -16  82 CALM      30.38F
MINOT          FAIR     -10 -16  74 SW5       30.41F WCI -22
MINOT AFB      FAIR     -13 -19  75 W9        30.41F WCI -32
BISMARCK       CLEAR     -7 -13  75 CALM      30.47F
DICKINSON      CLEAR     -5 -11  75 S9        30.31F WCI -22
GARRISON         N/A    -13 -18  78 CALM      30.41F
HETTINGER ARPT CLEAR     -6 -11  79 SE6       30.35F WCI -19
JAMESTOWN      CLEAR     -9 -15  75 W8        30.44F WCI -25
BEACH          FAIR      -2  -8  78 SE6       30.30F WCI -14
CARRINGTON     FAIR     -13 -17  84 MISG      30.44F
CROSBY         FAIR      -9 -15  77 S10       30.36F WCI -28
HARVEY         FAIR     -15 -20  76 W6        30.44S WCI -29
HAZEN          FAIR     -13 -20  70 CALM      30.44F
LINTON         FAIR     -13 -18  77 CALM      30.46S
MANDAN         FAIR      -9 -13  84 SW7       30.44S WCI -24
OAKES            N/A     -8 N/A N/A W6        30.48S WCI -21
RUGBY          FAIR     -13 -18  77 W7        30.43F WCI -29
WATFORD CITY   FAIR     -13 -18  77 CALM      30.35F
$$

CITY           SKY/WX    TMP DP  RH WIND       PRES   REMARKS
GRAND FORKS    CLEAR    -12 -18  74 SW3       30.47S
GRAND FORKS AF CLEAR     -6 -14  67 W6        30.46F WCI -19
DEVILS LAKE    PTCLDY   N/A N/A N/A MISG        N/A
FARGO          CLEAR     -7 -13  75 SW3       30.50S
CANDO          FAIR     -11 -17  77 W8        30.42S WCI -28
CAVALIER       FAIR       0  -9  65 W8        30.43S WCI -15
GWINNER        SUNNY     -6 -13  71 W9        30.49S WCI -22
ROLLA          FAIR      -2 -13  60 CALM      30.37S
WALHALLA         N/A      0  -9  65 W7        30.43S WCI -13
$$

CITY           SKY/WX    TMP DP  RH WIND       PRES   REMARKS
ABERDEEN       CLEAR    -14 -20  74 SW6       30.51F WCI -28
MOBRIDGE       PTCLDY    -9 -15  75 CALM      30.44S
BUFFALO          N/A     -3 -10  72 S7        30.22F WCI -16
RAPID CITY     PTCLDY    -5 -10  79 CALM      30.31F
GLASGOW        CLEAR      0  -6  76 SE12      30.25F WCI -17
SIDNEY         CLEAR     -2 N/A N/A CALM      30.39F
WOLF POINT     CLEAR      1  -5  75 N3        30.33F
GLENDIVE       CLEAR      1  -6  71 S7        30.30F WCI -11
MILES CITY     CLEAR     -1  -6  79 SE9       30.26F WCI -16
BAKER          CLEAR     -3  -9  75 SE6       30.28F WCI -15
$$

CITY           SKY/WX    TMP DP  RH WIND       PRES   REMARKS
BILLINGS       CLEAR      4  -2  76 CALM      30.10F
GREAT FALLS    PTCLDY    12   5  73 S9        29.97F WCI   0
REGINA         CLEAR    -11 -17  77 SE10      30.32F WCI -30
ESTEVAN        CLEAR    -17 -22  76 SW6       30.36F WCI -31
$$




USA.gov is the U.S. government's official web portal to all federal, state and local government web resources and services.